Temperature
18 18 18 18 18 17 17 17 17 17 17 17 16 16 16 16 16 15 15 15 15 15 15 15 15 14 14 14 14 14 14 14 14 14 14 14 14 14 14 14 14 14 13
19 18 18 18 18 18 18 17 17 17 17 17 17 16 16 16 16 16 16 16 15 15 15 15 15 15 15 14 14 14 14 14 14 14 15 14 14 14 14 14 14 14 13
19 18 18 18 18 18 18 18 17 17 17 17 17 16 16 16 16 16 16 16 16 16 15 15 15 15 15 15 15 14 14 14 14 14 14 14 14 14 14 14 14 14 14
19 19 19 18 18 18 18 18 17 17 17 17 17 17 16 16 16 16 16 16 16 16 15 15 15 15 15 15 15 15 14 14 14 14 14 14 14 14 14 14 14 14 14
18 18 18 18 18 18 18 18 17 17 17 17 17 16 16 16 16 16 16 16 16 15 15 15 15 15 15 15 15 14 14 14 14 14 14 14 14 14 14 14 13 14 14
18 18 18 18 17 17 17 17 17 17 16 16 16 16 16 16 16 15 15 15 15 15 15 15 15 15 15 14 14 14 14 14 14 14 14 14 14 14 14 13 13 13 13
18 17 17 17 17 17 17 16 16 16 16 16 16 15 15 15 15 15 15 15 15 15 15 15 15 15 14 14 14 14 14 14 14 13 13 14 14 14 13 13 13 13 13
17 17 17 17 17 17 16 16 16 16 16 15 15 15 15 15 15 15 15 14 14 14 14 14 14 14 14 14 14 14 14 14 13 13 13 13 13 13 13 13 12 12 12
16 16 16 16 16 16 16 16 15 15 15 15 15 14 14 14 14 14 14 14 14 14 14 14 14 14 13 13 13 13 13 13 13 13 13 13 13 13 12 12 12 12 12
15 15 15 15 15 15 15 15 14 14 14 14 14 14 13 13 13 13 13 13 13 13 13 13 13 13 13 12 12 12 12 13 12 12 12 12 12 12 12 12 12 12 11
14 14 14 14 14 14 14 13 13 13 13 13 13 13 13 13 13 13 12 12 12 12 12 12 12 12 12 12 11 11 11 11 11 11 11 12 12 12 12 12 12 11 11
13 13 13 13 13 13 13 13 13 13 12 12 12 12 12 12 12 12 12 11 11 11 11 11 11 11 11 11 11 10 10 10 10 10 10 11 11 11 11 11 11 11 11
13 13 12 12 12 12 12 12 12 12 12 11 11 11 11 11 11 11 11 11 10 10 10 10 10 10 10 10 10 10 10 10 9 9 9 9 9 10 10 10 10 10 10
12 12 12 12 12 12 12 12 11 11 11 11 11 10 10 10 10 10 10 10 10 10 9 9 9 9 9 9 9 9 9 8 8 8 8 8 8 9 9 9 9 9 10
11 11 11 11 11 11 11 11 11 11 10 10 10 10 10 9 9 9 9 9 9 8 8 8 8 8 8 8 8 8 8 8 8 8 8 8 8 8 8 8 8 8 8
11 11 11 11 11 11 11 10 10 10 10 10 9 9 9 8 8 8 8 8 8 7 7 7 7 7 7 6 6 6 7 7 7 7 7 7 7 7 7 8 8 8 8
10 10 10 10 10 10 10 10 10 9 9 9 9 8 8 8 7 7 7 7 7 6 6 6 6 6 5 5 5 5 5 5 6 6 6 6 6 6 6 6 6 7 7
10 10 10 10 10 9 9 9 9 9 8 8 8 7 7 7 7 6 6 6 6 6 5 5 5 4 4 4 4 4 4 4 5 5 5 5 5 5 5 5 6 6 6
10 9 9 9 9 9 9 8 8 8 7 7 6 6 6 6 6 5 5 5 4 4 4 4 4 4 3 3 3 3 3 4 4 4 4 4 4 4 5 5 5 5 6
9 9 9 8 8 8 8 7 7 6 6 6 5 5 5 5 4 4 4 3 3 3 3 3 3 3 3 3 3 3 3 3 3 3 3 3 4 4 4 4 4 5 5
9 8 8 8 7 7 7 6 6 5 5 4 4 3 3 3 3 3 2 2 2 2 2 2 2 2 2 2 2 2 2 2 3 3 3 3 3 3 4 4 4 4 5
8 7 7 7 6 6 5 5 4 4 4 3 3 3 2 2 2 2 2 2 1 1 1 1 1 1 1 1 2 2 2 2 2 2 3 3 3 3 3 3 4 4 4
7 7 6 6 5 5 4 4 4 3 3 2 2 2 2 1 1 1 1 1 1 1 1 1 1 1 1 1 1 1 1 1 2 2 2 3 3 3 3 3 3 4 4
6 6 5 5 4 4 3 3 3 2 2 2 1 1 1 1 1 1 1 1 1 1 1 1 1 1 1 1 1 1 1 1 2 2 2 2 3 3 3 3 3 3 4
5 5 4 4 3 3 3 2 2 2 1 1 1 1 1 0 0 0 0 0 0 0 0 0 0 0 1 1 1 1 1 2 2 2 2 2 3 3 3 3 3 3 3
4 4 4 3 3 2 2 2 2 1 1 1 1 0 0 0 -0 -0 -0 -0 -0 -0 0 0 0 0 0 1 1 1 1 1 2 2 2 2 3 3 3 3 3 3 3
Wind_Speed
11 10 9 8 8 8 8 8 8 7 8 10 10 10 10 9 8 7 6 6 6 5 5 5 6 4 3 2 1 2 2 3 3 4 3 3 2 4 5 10 12 12 13
11 10 9 8 8 8 8 8 8 8 9 10 10 10 10 10 9 9 9 8 7 7 7 6 7 5 5 4 3 3 3 3 4 5 3 3 4 5 5 5 8 11 13
10 10 10 9 9 10 9 8 8 8 8 9 9 10 10 9 9 9 9 9 8 8 8 8 8 7 6 5 5 5 4 4 4 4 5 3 4 4 4 5 5 6 10
10 10 10 10 10 10 9 8 8 8 9 9 9 10 9 9 9 9 9 9 9 8 8 8 8 8 9 8 7 7 6 5 5 5 5 5 5 5 3 4 5 5 6
7 8 9 8 7 6 6 7 7 8 10 9 9 8 8 7 8 8 8 9 9 8 8 8 9 11 12 10 8 8 7 6 6 6 6 5 5 4 5 4 5 6 5
5 4 3 3 4 4 4 5 5 6 7 7 8 8 7 8 9 11 9 7 8 8 8 8 8 9 12 14 15 13 11 9 9 7 7 8 9 7 6 5 5 4 6
6 4 3 4 3 3 3 3 5 5 5 5 6 6 7 7 9 11 12 8 7 8 8 7 8 8 8 7 10 13 13 15 14 10 10 11 10 8 7 7 7 8 8
6 4 4 3 3 2 2 3 4 4 5 5 4 4 4 5 6 8 8 6 5 6 6 6 6 7 5 5 6 7 8 9 11 10 11 12 12 10 9 10 9 8 7
6 5 4 4 3 3 2 1 1 2 3 3 3 3 3 2 2 3 4 2 3 4 4 4 4 4 5 4 4 6 8 9 11 14 15 16 18 18 12 6 6 6 8
6 5 4 5 5 4 3 2 2 2 3 3 2 2 2 2 3 1 2 1 2 3 3 2 2 3 5 5 4 6 9 10 8 9 9 12 13 14 16 12 10 10 8
6 7 6 6 5 5 4 4 4 5 5 5 5 5 4 3 4 4 3 1 1 2 3 3 3 6 8 8 7 7 11 10 8 8 8 9 8 8 9 9 10 11 12
7 8 8 7 6 7 7 6 6 6 6 5 5 5 4 4 4 4 4 2 0 1 3 3 4 8 9 10 8 10 13 10 6 6 7 8 8 9 9 9 10 12 13
8 7 6 6 6 6 6 6 5 5 5 4 4 4 3 3 4 7 7 6 4 1 3 6 9 10 10 8 10 12 10 5 4 5 7 8 8 8 8 8 8 9 10
8 7 6 6 6 5 4 4 4 3 3 3 3 2 2 3 4 4 4 4 5 4 4 6 9 9 7 7 8 7 4 4 4 5 6 6 6 6 7 7 8 8 8
8 7 7 6 6 5 4 4 3 2 3 4 3 2 3 3 4 5 4 4 4 4 4 3 3 4 5 5 5 5 5 5 5 5 6 7 7 7 7 7 7 7 8
7 6 5 5 5 5 5 6 10 9 11 10 8 6 4 4 6 8 8 8 7 6 3 3 4 4 5 5 6 6 5 5 5 6 6 6 7 8 8 7 7 8 9
6 5 4 5 5 5 5 5 4 7 10 11 11 10 8 8 9 10 10 9 8 5 3 3 4 4 5 5 5 5 6 6 6 6 6 7 7 8 8 8 8 8 9
5 5 5 4 4 5 5 5 4 4 5 5 7 11 11 10 10 10 10 7 6 5 3 4 5 5 5 5 5 5 6 7 6 6 7 7 7 8 8 9 9 9 10
5 4 4 4 5 5 5 6 5 6 5 4 4 7 10 9 8 10 8 5 4 5 5 5 5 5 5 6 6 6 6 7 7 8 8 8 8 8 8 9 9 12 11
5 7 6 5 5 6 6 6 5 5 4 4 4 4 5 5 5 6 5 4 4 4 5 5 5 6 6 6 6 6 7 7 8 8 8 8 8 8 9 11 10 10 9
4 5 8 7 5 5 5 5 4 4 4 3 3 4 6 3 4 4 5 5 5 5 5 6 6 6 6 6 7 7 9 8 8 9 9 9 9 9 9 10 10 10 10
4 4 4 4 4 5 4 4 4 4 3 3 3 4 7 4 4 5 5 6 6 5 5 6 6 6 6 7 7 8 9 9 9 9 9 10 10 10 10 10 11 10 10
4 5 5 5 4 5 5 4 4 3 3 3 3 4 4 5 5 5 6 6 6 6 6 5 7 7 7 8 7 7 8 9 9 10 11 11 11 10 10 11 12 12 11
5 5 5 4 4 4 4 4 3 3 3 3 3 4 4 5 5 6 6 6 7 6 7 6 6 9 11 10 10 11 11 12 14 11 13 12 12 11 11 11 12 12 11
5 5 5 4 4 4 3 3 3 4 3 3 4 4 5 5 5 6 6 7 8 7 8 9 8 10 12 14 14 14 17 19 17 14 12 10 12 13 12 12 11 11 11
5 5 5 4 3 3 3 3 3 3 4 4 4 4 4 5 5 6 6 7 8 8 8 9 11 14 15 15 17 19 19 18 18 17 13 9 11 11 11 10 12 11 11
Wind_Direction
191 193 196 196 197 194 196 201 198 195 190 186 185 183 185 188 184 182 191 190 196 207 207 204 220 217 213 215 181 161 163 159 200 267 266 270 243 249 246 240 246 247 249
193 194 199 199 198 200 205 204 195 193 190 186 183 185 191 193 191 191 199 201 202 211 217 213 224 221 220 223 213 213 208 193 193 245 273 273 258 252 247 248 251 250 248
190 195 200 202 202 208 210 204 196 193 190 188 184 190 196 196 197 201 203 206 208 213 215 215 222 213 221 223 220 221 225 220 200 220 257 260 266 265 266 267 261 258 258
192 196 203 207 207 208 207 201 197 193 190 191 192 194 195 196 199 206 208 212 216 219 219 218 219 212 217 219 223 224 223 227 223 229 250 261 263 268 253 263 278 267 263
189 197 206 207 204 203 203 202 202 201 200 194 192 195 197 200 209 208 211 216 218 227 230 228 227 223 221 218 221 220 218 225 230 236 249 257 258 257 249 243 254 269 270
162 184 185 166 170 184 202 206 203 209 205 192 196 197 203 216 217 211 207 218 217 222 231 238 242 239 237 233 233 227 216 220 227 231 241 242 252 243 242 239 241 254 272
117 120 122 132 160 188 208 216 215 210 198 187 194 198 209 223 222 217 215 216 223 227 228 233 247 249 242 245 249 248 240 234 227 226 236 245 248 240 232 240 236 234 245
102 100 114 123 144 158 183 220 219 207 191 184 188 198 209 229 229 230 229 226 233 238 236 233 237 253 258 253 258 262 259 254 245 238 239 248 247 243 231 237 243 248 252
89 83 87 104 111 115 119 133 193 180 169 167 171 193 211 252 256 250 231 226 247 260 264 256 245 253 277 274 266 271 275 274 268 256 249 252 254 253 245 242 244 244 260
75 79 74 82 89 89 90 99 88 105 123 118 115 108 119 96 53 61 168 178 268 287 296 292 261 271 292 294 270 267 274 278 283 286 274 267 261 259 251 236 237 243 251
70 67 62 67 74 74 67 58 63 70 74 80 79 72 72 69 54 66 106 128 278 301 307 301 299 310 303 300 283 259 262 273 281 274 275 274 270 263 256 242 233 235 243
65 64 58 55 62 72 74 61 64 76 75 74 75 62 48 41 42 44 57 70 27 303 296 298 300 309 305 300 289 273 275 279 269 270 272 272 270 269 266 257 246 241 242
57 55 55 57 56 61 73 75 69 72 80 76 74 70 50 32 28 31 34 28 19 341 299 305 309 308 307 301 293 292 293 280 270 272 273 273 271 272 275 274 269 260 255
55 46 44 52 51 51 60 74 81 84 91 85 80 75 46 28 15 5 2 360 359 349 330 319 316 314 312 303 306 310 304 286 280 277 281 280 284 284 282 277 276 274 272
51 44 42 45 49 45 41 45 59 64 107 111 96 92 75 36 345 354 6 352 337 324 331 338 345 344 340 333 325 318 314 314 305 295 294 294 293 290 287 283 274 274 270
50 41 39 38 40 45 51 50 49 61 68 76 81 84 64 40 11 13 10 2 355 356 22 351 334 328 323 319 318 316 313 311 306 302 300 297 296 295 293 291 284 278 275
51 41 36 37 41 42 52 68 60 40 55 62 60 54 44 24 17 13 10 6 6 19 20 331 317 313 312 313 312 312 313 311 308 306 303 301 298 296 293 291 288 283 279
39 32 36 38 45 55 61 63 69 67 45 28 31 34 29 24 22 20 15 19 11 13 352 331 323 319 314 311 311 312 310 310 307 303 300 298 294 292 292 291 288 283 282
27 22 37 47 57 59 57 60 63 64 60 42 22 15 16 17 22 22 23 23 358 345 339 331 324 319 316 312 311 310 308 305 302 301 297 294 294 294 293 292 292 289 283
23 38 56 66 60 58 57 60 62 61 54 43 30 9 357 11 10 357 358 350 343 331 326 323 320 319 317 313 310 309 308 305 303 300 298 297 295 293 292 292 291 291 287
37 51 65 70 68 66 64 62 62 62 51 36 12 1 10 7 348 339 338 335 332 328 324 322 318 316 313 312 311 309 307 304 302 301 300 298 297 295 293 291 289 288 288
67 65 70 75 73 68 68 66 64 56 39 25 357 350 359 2 343 336 331 326 322 319 318 318 318 315 312 312 313 311 309 308 308 306 303 300 297 294 293 292 291 290 288
72 75 74 70 70 67 63 55 50 40 26 12 359 350 347 344 338 334 331 327 325 325 324 325 326 325 324 324 322 315 313 313 313 309 305 301 298 296 294 293 293 293 292
77 79 79 72 65 61 56 43 33 25 17 4 352 342 336 334 334 335 336 334 334 331 332 333 330 329 331 334 329 322 319 318 315 306 300 296 294 292 290 289 290 291 291
77 76 72 68 65 60 51 37 23 9 357 345 338 334 333 336 340 341 341 341 340 337 335 337 337 336 332 329 328 326 323 318 312 308 302 294 290 289 288 288 289 292 291
79 76 72 68 62 54 45 25 4 350 342 339 341 342 343 346 348 347 345 344 341 336 333 335 334 333 331 332 329 327 322 319 316 312 307 297 293 292 296 294 295 293 293
Height
1508 1511 1515 1518 1521 1524 1526 1529 1531 1533 1534 1536 1537 1538 1539 1541 1542 1542 1543 1544 1545 1546 1547 1548 1549 1550 1550 1551 1551 1551 1551 1551 1550 1550 1550 1550 1550 1549 1549 1549 1548 1547 1546
1506 1509 1513 1516 1519 1521 1524 1526 1528 1530 1531 1533 1534 1536 1537 1538 1539 1540 1541 1542 1543 1544 1545 1545 1546 1547 1548 1548 1548 1548 1548 1548 1548 1547 1547 1547 1546 1546 1545 1545 1544 1543 1542
1504 1507 1510 1513 1516 1518 1521 1523 1525 1527 1528 1530 1531 1532 1534 1535 1536 1537 1538 1539 1540 1541 1542 1543 1544 1544 1545 1545 1546 1545 1545 1545 1545 1544 1543 1543 1542 1542 1541 1540 1540 1539 1538
1502 1505 1507 1510 1513 1515 1518 1520 1522 1524 1525 1527 1528 1529 1530 1532 1533 1534 1535 1536 1537 1538 1539 1540 1540 1541 1541 1542 1542 1542 1542 1542 1541 1540 1539 1538 1538 1538 1537 1536 1535 1534 1533
1500 1503 1505 1508 1510 1513 1515 1517 1518 1520 1521 1523 1524 1525 1527 1528 1529 1530 1531 1532 1533 1534 1535 1536 1537 1537 1538 1538 1538 1538 1538 1537 1536 1535 1534 1533 1532 1532 1532 1531 1529 1528 1527
1498 1500 1502 1505 1507 1509 1510 1513 1514 1515 1517 1518 1519 1520 1522 1523 1524 1526 1527 1528 1529 1530 1530 1531 1532 1533 1533 1533 1533 1533 1533 1532 1531 1530 1529 1528 1526 1526 1526 1525 1524 1522 1520
1495 1497 1499 1502 1503 1505 1506 1508 1509 1510 1511 1512 1514 1515 1517 1518 1520 1521 1522 1523 1524 1524 1525 1526 1527 1527 1528 1527 1527 1527 1526 1526 1525 1525 1523 1521 1521 1520 1520 1518 1517 1515 1513
1493 1494 1496 1497 1499 1501 1502 1503 1504 1505 1506 1507 1509 1511 1512 1513 1515 1516 1517 1518 1519 1520 1520 1520 1520 1521 1521 1521 1520 1519 1518 1518 1518 1517 1515 1514 1514 1513 1513 1511 1509 1507 1505
1493 1494 1495 1495 1497 1498 1499 1499 1499 1500 1501 1502 1504 1507 1508 1509 1510 1512 1512 1513 1513 1514 1514 1514 1514 1514 1514 1513 1513 1511 1510 1509 1509 1508 1507 1506 1506 1505 1505 1503 1501 1499 1495
1493 1494 1494 1495 1496 1497 1497 1497 1497 1497 1497 1499 1501 1503 1504 1505 1506 1507 1507 1508 1508 1508 1508 1508 1507 1507 1506 1506 1505 1503 1502 1501 1500 1499 1498 1497 1496 1495 1495 1494 1492 1490 1486
1494 1495 1495 1495 1496 1496 1497 1496 1496 1496 1496 1498 1499 1500 1501 1502 1502 1503 1502 1502 1502 1502 1501 1501 1501 1500 1499 1498 1497 1496 1494 1492 1491 1489 1488 1486 1486 1485 1484 1483 1482 1480 1478
1496 1496 1496 1496 1496 1496 1496 1496 1496 1496 1497 1498 1498 1499 1499 1499 1499 1499 1498 1497 1497 1497 1496 1495 1494 1493 1492 1491 1490 1488 1487 1485 1483 1481 1479 1477 1476 1475 1474 1473 1472 1470 1468
1498 1497 1498 1497 1497 1497 1497 1497 1497 1498 1498 1498 1498 1497 1497 1497 1497 1496 1495 1494 1493 1493 1491 1490 1489 1487 1486 1484 1483 1481 1479 1477 1475 1472 1470 1469 1467 1466 1464 1463 1461 1460 1458
1500 1500 1499 1499 1498 1498 1498 1498 1497 1497 1497 1497 1497 1496 1496 1495 1494 1493 1492 1491 1490 1488 1487 1485 1483 1482 1480 1478 1477 1475 1472 1470 1468 1466 1463 1461 1459 1457 1455 1454 1452 1449 1447
1502 1502 1501 1501 1500 1499 1499 1498 1498 1497 1497 1496 1495 1495 1493 1492 1491 1490 1489 1487 1486 1484 1482 1480 1478 1477 1475 1473 1471 1469 1467 1464 1462 1459 1457 1454 1451 1449 1447 1445 1443 1440 1438
1503 1503 1502 1502 1501 1500 1499 1498 1497 1497 1495 1494 1494 1493 1491 1491 1489 1488 1486 1484 1482 1480 1478 1475 1474 1472 1470 1467 1465 1463 1460 1458 1455 1453 1450 1447 1444 1442 1439 1437 1435 1432 1429
1505 1504 1503 1502 1500 1499 1498 1497 1497 1496 1495 1494 1493 1491 1490 1488 1487 1485 1483 1481 1478 1476 1474 1471 1469 1467 1465 1463 1460 1458 1455 1452 1450 1447 1444 1441 1438 1435 1432 1429 1426 1423 1420
1505 1504 1503 1501 1500 1499 1498 1497 1496 1495 1493 1492 1491 1489 1488 1486 1484 1481 1479 1476 1474 1472 1470 1467 1465 1463 1460 1457 1455 1452 1449 1446 1443 1441 1438 1435 1431 1428 1425 1421 1418 1415 1412
1505 1504 1503 1501 1500 1499 1498 1496 1495 1493 1492 1490 1489 1487 1485 1483 1481 1478 1475 1472 1470 1467 1465 1463 1461 1458 1455 1452 1449 1446 1443 1439 1437 1434 1431 1428 1424 1421 1417 1414 1411 1408 1405
1505 1503 1502 1501 1500 1498 1497 1496 1494 1492 1490 1489 1486 1484 1482 1479 1477 1474 1472 1469 1467 1464 1462 1459 1456 1453 1450 1447 1443 1440 1437 1433 1430 1427 1424 1420 1417 1414 1410 1407 1404 1400 1397
1504 1503 1501 1500 1499 1497 1496 1494 1492 1491 1489 1487 1485 1482 1480 1477 1475 1472 1469 1466 1464 1461 1458 1455 1452 1448 1445 1442 1438 1435 1431 1428 1424 1421 1417 1413 1410 1406 1403 1399 1396 1393 1390
1503 1501 1500 1499 1497 1496 1494 1492 1491 1489 1487 1485 1483 1481 1478 1475 1472 1470 1467 1464 1461 1458 1455 1451 1448 1444 1441 1437 1433 1429 1426 1422 1418 1414 1410 1407 1403 1399 1396 1392 1389 1386 1383
1501 1500 1498 1497 1495 1494 1492 1491 1489 1487 1485 1483 1481 1479 1476 1473 1471 1468 1465 1462 1458 1455 1451 1447 1443 1440 1436 1432 1429 1425 1420 1416 1412 1408 1404 1400 1396 1392 1389 1386 1382 1379 1377
1499 1498 1497 1495 1494 1492 1491 1489 1488 1486 1484 1482 1480 1477 1475 1472 1469 1466 1462 1459 1455 1451 1447 1444 1439 1435 1432 1428 1423 1419 1415 1411 1406 1402 1398 1393 1390 1386 1383 1379 1376 1374 1371
1498 1497 1496 1494 1493 1491 1490 1488 1487 1485 1483 1481 1478 1476 1473 1470 1467 1464 1460 1456 1452 1448 1444 1440 1436 1432 1427 1423 1418 1414 1410 1405 1401 1396 1392 1388 1384 1380 1377 1374 1371 1368 1366
1498 1496 1495 1493 1492 1491 1489 1487 1486 1484 1482 1480 1477 1474 1472 1469 1465 1462 1458 1453 1449 1445 1441 1437 1432 1428 1423 1418 1414 1409 1404 1400 1396 1391 1387 1383 1379 1376 1372 1369 1366 1363 1361